TimePST,TemperatureF,Dew PointF,Humidity,Sea Level PressureIn,VisibilityMPH,Wind Direction,Wind SpeedMPH,Gust SpeedMPH,PrecipitationIn,Events,Conditions,WindDirDegrees,DateUTC
12:56 AM,43.0,41.9,96,30.29,10.0,Calm,Calm,-,N/A,,Clear,0,2013-02-16 08:56:00
1:56 AM,43.0,41.9,96,30.28,10.0,East,3.5,-,N/A,,Clear,80,2013-02-16 09:56:00
2:56 AM,39.9,39.9,100,30.29,10.0,Calm,Calm,-,N/A,,Clear,0,2013-02-16 10:56:00
3:04 AM,41.0,41.0,100,30.28,2.5,Calm,Calm,-,N/A,,Partly Cloudy,0,2013-02-16 11:04:00
3:06 AM,41.0,41.0,100,30.28,1.2,NW,3.5,-,N/A,,Mostly Cloudy,310,2013-02-16 11:06:00
3:09 AM,41.0,41.0,100,30.28,0.8,Calm,Calm,-,N/A,,Mist,0,2013-02-16 11:09:00
3:15 AM,39.2,39.2,100,30.27,1.2,Calm,Calm,-,N/A,,Mostly Cloudy,0,2013-02-16 11:15:00
3:18 AM,39.2,39.2,100,30.27,2.0,Calm,Calm,-,N/A,,Mostly Cloudy,0,2013-02-16 11:18:00
3:21 AM,39.2,39.2,100,30.27,1.2,Calm,Calm,-,N/A,,Mostly Cloudy,0,2013-02-16 11:21:00
3:23 AM,39.2,39.2,100,30.27,0.5,Calm,Calm,-,N/A,Fog,Fog,0,2013-02-16 11:23:00
3:31 AM,41.0,41.0,100,30.27,0.2,NNW,3.5,-,N/A,Fog,Fog,340,2013-02-16 11:31:00
3:56 AM,41.9,41.9,100,30.27,0.2,Calm,Calm,-,N/A,Fog,Fog,0,2013-02-16 11:56:00
4:06 AM,42.8,42.8,100,30.27,0.2,Calm,Calm,-,N/A,Fog,Fog,0,2013-02-16 12:06:00
4:24 AM,42.8,42.8,100,30.27,0.2,Calm,Calm,-,N/A,Fog,Fog,0,2013-02-16 12:24:00
4:32 AM,42.8,42.8,100,30.27,0.5,Calm,Calm,-,N/A,Fog,Fog,0,2013-02-16 12:32:00
4:56 AM,39.9,39.9,100,30.28,1.0,Calm,Calm,-,N/A,,Mist,0,2013-02-16 12:56:00
5:00 AM,39.2,39.2,100,30.27,1.5,Calm,Calm,-,N/A,,Mostly Cloudy,0,2013-02-16 13:00:00
5:06 AM,39.2,39.2,100,30.27,4.0,Calm,Calm,-,N/A,,Partly Cloudy,0,2013-02-16 13:06:00
5:56 AM,37.9,37.9,100,30.28,10.0,NW,4.6,-,N/A,,Clear,310,2013-02-16 13:56:00
6:09 AM,39.2,39.2,100,30.28,9.0,North,4.6,-,N/A,,Scattered Clouds,10,2013-02-16 14:09:00
6:17 AM,41.0,41.0,100,30.28,4.0,NNW,4.6,-,N/A,,Mostly Cloudy,340,2013-02-16 14:17:00
6:35 AM,41.0,41.0,100,30.28,7.0,North,6.9,-,N/A,,Overcast,350,2013-02-16 14:35:00
6:56 AM,41.9,41.9,100,30.29,6.0,NNW,5.8,-,N/A,,Overcast,340,2013-02-16 14:56:00
7:20 AM,42.8,42.8,100,30.28,5.0,Variable,3.5,-,N/A,,Scattered Clouds,0,2013-02-16 15:20:00
7:56 AM,39.9,39.9,100,30.30,7.0,South,4.6,-,N/A,,Clear,170,2013-02-16 15:56:00
8:56 AM,43.9,43.9,100,30.31,10.0,Calm,Calm,-,N/A,,Clear,0,2013-02-16 16:56:00
9:56 AM,46.9,45.9,96,30.31,1.8,WNW,6.9,-,N/A,,Mostly Cloudy,300,2013-02-16 17:56:00
10:00 AM,46.4,46.4,100,30.30,1.0,WNW,5.8,-,N/A,,Mist,300,2013-02-16 18:00:00
10:12 AM,46.4,46.4,100,30.30,0.8,Calm,Calm,-,N/A,,Mostly Cloudy,0,2013-02-16 18:12:00
10:27 AM,46.4,46.4,100,30.30,1.2,Calm,Calm,-,N/A,,Mostly Cloudy,0,2013-02-16 18:27:00
10:30 AM,46.4,46.4,100,30.30,2.5,South,3.5,-,N/A,,Mostly Cloudy,190,2013-02-16 18:30:00
10:35 AM,48.2,46.4,93,30.29,3.0,Calm,Calm,-,N/A,,Scattered Clouds,0,2013-02-16 18:35:00
10:42 AM,48.2,46.4,93,30.29,2.0,Calm,Calm,-,N/A,,Scattered Clouds,0,2013-02-16 18:42:00
10:56 AM,50.0,46.9,89,30.30,6.0,SW,5.8,-,N/A,,Mist,220,2013-02-16 18:56:00
11:56 AM,50.9,47.8,89,30.29,7.0,South,5.8,-,N/A,,Clear,170,2013-02-16 19:56:00
12:56 PM,52.0,47.8,86,30.27,8.0,SSE,6.9,-,N/A,,Clear,150,2013-02-16 20:56:00
1:56 PM,54.9,48.9,80,30.25,9.0,Variable,4.6,-,N/A,,Clear,0,2013-02-16 21:56:00
2:56 PM,54.0,47.8,80,30.23,10.0,NNW,9.2,-,N/A,,Clear,340,2013-02-16 22:56:00
3:56 PM,52.9,46.9,80,30.23,10.0,North,12.7,-,N/A,,Clear,350,2013-02-16 23:56:00
4:56 PM,50.9,45.9,83,30.22,9.0,NNW,12.7,-,N/A,,Clear,330,2013-02-17 00:56:00
5:56 PM,46.9,45.9,96,30.22,7.0,NNW,8.1,-,N/A,,Clear,330,2013-02-17 01:56:00
6:56 PM,45.9,45.0,97,30.22,10.0,Calm,Calm,-,N/A,,Clear,0,2013-02-17 02:56:00
7:56 PM,43.9,43.0,97,30.23,10.0,Variable,3.5,-,N/A,,Clear,0,2013-02-17 03:56:00
8:56 PM,43.9,41.0,90,30.24,10.0,NNW,5.8,-,N/A,,Clear,340,2013-02-17 04:56:00
9:56 PM,43.9,37.9,80,30.25,10.0,NNW,5.8,-,N/A,,Clear,340,2013-02-17 05:56:00
10:56 PM,46.9,34.0,61,30.25,10.0,NNE,11.5,-,N/A,,Clear,30,2013-02-17 06:56:00
11:56 PM,45.9,34.9,66,30.25,10.0,NNE,9.2,-,N/A,,Clear,30,2013-02-17 07:56:00